[[{"header":{"parameterUnit":"m.s-1","parameterCategory":2,"la1":30.2991,"la2":30.254,"lo1":-89.0895,"lo2":-89.0444,"dy":0.0017,"dx":0.0017,"nx":28,"ny":28,"refTime":"2024-03-01T03:00:00:Z","depth":"0","parameterNumber":2,"parameterNumberName":"U-component_of_CURRENTS"},"data":[0,0,0,0,0,0,0,0,0,0,0,0,0,0,0,0,0,0,0,0,0,0,0,0,0,0,0,0,0,0,0,0,0,0,0,0,0,0,0,0,0,0,0,0,0,0,0,0,0,0,0,0,0,0,0,0,0,0,0.1585,0.1585,0,0.1556,0.1555,0.1555,0.1522,0.1522,0.1521,0.1521,0.1487,0.1487,0.1486,0,0,0,0,0,0,0,0,0,0,0,0,0,0.1602,0.1601,0.1585,0.1585,0.1584,0.1556,0.1555,0.1555,0.1522,0.1522,0.1521,0.1521,0.1487,0.1487,0.1486,0,0,0,0,0,0,0,0,0,0,0,0,0,0.1584,0.1601,0.1585,0.1566,0.1564,0.1556,0.1555,0.1554,0.1522,0.1522,0.1521,0.1521,0.1488,0.1487,0.1486,0.1489,0,0,0.1483,0.1483,0,0,0,0,0,0,0,0,0.1585,0.1583,0.1569,0.1567,0.1565,0.1544,0.1549,0.1533,0.1522,0.1536,0.1521,0.1521,0.1507,0.1505,0.1497,0.1487,0.1486,0.1483,0.1482,0.1482,0.1482,0,0,0,0,0,0,0,0.1586,0.1584,0.1571,0.1569,0.1567,0.1556,0.1553,0.1545,0.1523,0.1535,0.1533,0.1533,0.1506,0.1498,0.1496,0.1485,0.1483,0.1482,0.1481,0.1481,0.1514,0.1516,0,0,0,0,0,0,0.1595,0.1585,0.1572,0.1571,0.1576,0.1556,0.1552,0.155,0.1523,0.1519,0.1533,0.1532,0.15,0.1498,0.1495,0.1532,0.1482,0.1481,0.148,0.1513,0.1515,0.1516,0,0,0,0,0,0,0.1595,0.1594,0.1573,0.1579,0.1576,0.1557,0.1553,0.1549,0.1544,0.1522,0.1518,0.1533,0.15,0.1497,0.1499,0.1529,0.1481,0.148,0.1511,0.1513,0.1515,0.1584,0,0,0,0,0,0,0.1596,0.1594,0.1593,0.158,0.1576,0.157,0.1554,0.1549,0.1545,0.1543,0.152,0.1516,0.1499,0.1501,0.1498,0.1527,0.1479,0.1509,0.1512,0.1515,0.158,0.1588,0.1595,0,0,0,0,0,0.1596,0.1593,0.1593,0.1591,0.1575,0.157,0.1567,0.1551,0.1546,0.1544,0.1537,0.1517,0.1516,0.1501,0.1497,0.1527,0.1508,0.1511,0.1514,0.1576,0.1587,0.1595,0,0,0,0,0,0,0.1598,0.159,0.1588,0.1583,0.158,0.1566,0.1561,0.1557,0.1549,0.1548,0.1529,0.1525,0.1538,0.1525,0.1508,0.1546,0.1512,0.1515,0.156,0.157,0.1577,0.1573,0.1478,0,0,0,0,0,0.1601,0.1597,0.1592,0.1589,0.1588,0.1579,0.1575,0.1568,0.1561,0.1556,0.1543,0.154,0.155,0.1552,0.1546,0.1565,0.1562,0.1584,0.1592,0.1599,0.1594,0.1625,0.1636,0.1527,0.1527,0.1527,0,0,0.1598,0.1597,0.1592,0.1589,0.1585,0.1592,0.1574,0.1572,0.1584,0.1555,0.1562,0.1559,0.1559,0.158,0.1586,0.1573,0.1632,0.1603,0.1609,0.16,0.163,0.164,0.165,0.1529,0.1529,0.1528,0,0,0.1601,0.1595,0.1596,0.16,0.1601,0.1599,0.1603,0.1594,0.1595,0.1608,0.1598,0.1614,0.1614,0.1626,0.1635,0.1683,0.1667,0.1685,0.1726,0.1757,0.1766,0.1774,0.1799,0.1809,0.1695,0.1695,0.1695,0,0.1602,0.16,0.1596,0.1608,0.161,0.1607,0.1615,0.1625,0.1619,0.1628,0.1618,0.1643,0.1641,0.1685,0.1706,0.1701,0.171,0.1691,0.1767,0.1775,0.1781,0.1805,0.1815,0.1699,0.1698,0.1698,0.1698,0,0.161,0.1611,0.1614,0.1628,0.1636,0.1637,0.1655,0.1664,0.1669,0.1677,0.1708,0.1713,0.1727,0.1744,0.1741,0.1796,0.1785,0.1769,0.1743,0.1797,0.1818,0.1827,0.1704,0.1703,0.1702,0.1701,0,0,0.1587,0.1614,0.1611,0.162,0.1642,0.1645,0.1682,0.1704,0.1726,0.1741,0.1769,0.1807,0.1804,0.1813,0.1818,0.1852,0.192,0.1836,0.1836,0.186,0.1989,0.1988,0.1997,0.1919,0.1921,0.1922,0.199,0,0.1586,0.1604,0.1623,0.164,0.1643,0.1669,0.17,0.1729,0.1753,0.1781,0.1814,0.1835,0.1835,0.1844,0.1885,0.1897,0.1944,0.1903,0.1933,0.1934,0.1925,0.2007,0.1895,0.1947,0.1998,0.2,0.2001,0,0.1565,0.1585,0.1598,0.1633,0.1639,0.1658,0.1698,0.1729,0.1786,0.1806,0.1848,0.1863,0.1917,0.1905,0.1978,0.1951,0.198,0.1997,0.1999,0.1975,0.1949,0.1898,0.196,0.1727,0.2014,0.2013,0.2012,0,0.1509,0.1551,0.1559,0.1571,0.1624,0.1641,0.167,0.1726,0.1756,0.1816,0.1839,0.19,0.1922,0.1973,0.2015,0.2,0.2091,0.207,0.2103,0.2102,0.2,0.1988,0.1835,0.2137,0.2137,0.2137,0.2137,0,0.1467,0.1465,0.1534,0.1533,0.1555,0.1607,0.1636,0.1676,0.1741,0.1787,0.1839,0.1883,0.194,0.1998,0.2036,0.21,0.2112,0.2126,0.2129,0.2023,0.2013,0.1799,0.1705,0.2139,0.2139,0.2138,0.2138,0,0.137,0.1416,0.1428,0.1497,0.1519,0.1528,0.1602,0.164,0.1697,0.176,0.1779,0.1871,0.1951,0.2014,0.2096,0.2121,0.2082,0.2201,0.2074,0.2062,0.1872,0.179,0.1742,0.1713,0.225,0.2251,0.2251,0,0.1309,0.1311,0.1383,0.1408,0.1433,0.1472,0.1514,0.1595,0.165,0.1759,0.1796,0.1885,0.1964,0.2081,0.2135,0.2211,0.2086,0.2146,0.2104,0.1859,0.1768,0.1736,0.1713,0.1998,0.1996,0.1995,0.1993,0,0.1204,0.1236,0.1258,0.1319,0.1366,0.1435,0.1505,0.154,0.1658,0.1716,0.1823,0.1889,0.2003,0.2046,0.2134,0.215,0.1961,0.2123,0.189,0.1585,0.1518,0.149,0.1949,0.1981,0.1982,0.1983,0.1984,0.1984,0.112,0.112,0.1176,0.1231,0.1305,0.1411,0.1465,0.1551,0.1636,0.1741,0.1807,0.1891,0.1907,0.2023,0.1994,0.1802,0.1915,0.1697,0.1631,0.1631,0.1555,0.1999,0.2022,0.2023,0.2024,0.2025,0.2026,0,0.1036,0.1062,0.1101,0.1197,0.1288,0.136,0.1482,0.1545,0.1643,0.1717,0.1792,0.1793,0.1734,0.1678,0.1496,0.1301,0.1285,0.117,0.1022,0.1041,0.142,0.1351,0.1201,0.1201,0.1202,0.1202,0.1202,0.1202,0.1008,0.1002,0.1044,0.1172,0.1265,0.1409,0.1493,0.1562,0.1629,0.1667,0.168,0.1678,0.1503,0.1059,0.0695,0.0661,0.0514,0.052,0.0533,0.0642,0.0683,0.0721,0.0628,0.033,0.0329,0.0136,0.0133,0.0131]},{"header":{"parameterUnit":"m.s-1","parameterCategory":2,"la1":30.2991,"la2":30.254,"lo1":-89.0895,"lo2":-89.0444,"dy":0.0017,"dx":0.0017,"nx":28,"ny":28,"refTime":"2024-03-01T03:00:00:Z","depth":"0","parameterNumber":3,"parameterNumberName":"V-component_of_CURRENTS"},"data":[0,0,0,0,0,0,0,0,0,0,0,0,0,0,0,0,0,0,0,0,0,0,0,0,0,0,0,0,0,0,0,0,0,0,0,0,0,0,0,0,0,0,0,0,0,0,0,0,0,0,0,0,0,0,0,0,0,0,-0.0255,-0.0255,0,-0.0268,-0.0268,-0.0268,-0.028,-0.028,-0.028,-0.0281,-0.03,-0.03,-0.03,0,0,0,0,0,0,0,0,0,0,0,0,0,-0.0227,-0.0227,-0.0255,-0.0255,-0.0255,-0.0268,-0.0268,-0.0268,-0.028,-0.028,-0.028,-0.0281,-0.03,-0.03,-0.03,0,0,0,0,0,0,0,0,0,0,0,0,0,-0.0238,-0.0227,-0.0255,-0.0263,-0.0264,-0.0268,-0.0268,-0.0268,-0.028,-0.028,-0.0281,-0.0281,-0.03,-0.03,-0.03,-0.0296,0,0,-0.0302,-0.0302,0,0,0,0,0,0,0,0,-0.0238,-0.0239,-0.0262,-0.0263,-0.0264,-0.0273,-0.0265,-0.0278,-0.028,-0.0273,-0.0281,-0.0281,-0.0292,-0.0293,-0.0293,-0.0297,-0.0298,-0.0302,-0.0302,-0.0302,-0.0302,0,0,0,0,0,0,0,-0.0237,-0.0239,-0.0259,-0.0262,-0.0263,-0.0262,-0.0264,-0.0267,-0.028,-0.0274,-0.0275,-0.0277,-0.0292,-0.0293,-0.0294,-0.0298,-0.0302,-0.0302,-0.0303,-0.0303,-0.0307,-0.0307,0,0,0,0,0,0,-0.0237,-0.0238,-0.0259,-0.0259,-0.0252,-0.0262,-0.0264,-0.0269,-0.028,-0.0282,-0.0277,-0.0278,-0.0292,-0.0293,-0.0295,-0.0282,-0.0302,-0.0303,-0.0303,-0.0307,-0.0307,-0.0307,0,0,0,0,0,0,-0.0237,-0.0239,-0.0258,-0.025,-0.0252,-0.0263,-0.0268,-0.0269,-0.027,-0.0282,-0.0285,-0.0277,-0.0292,-0.0294,-0.0298,-0.0283,-0.0303,-0.0303,-0.0307,-0.0307,-0.0307,-0.0262,0,0,0,0,0,0,-0.0236,-0.0239,-0.0236,-0.025,-0.0253,-0.0253,-0.0267,-0.0269,-0.0272,-0.0273,-0.0283,-0.0285,-0.0293,-0.0297,-0.0298,-0.0284,-0.0304,-0.0308,-0.0307,-0.0307,-0.0263,-0.026,-0.0257,0,0,0,0,0,-0.0235,-0.0227,-0.0236,-0.0239,-0.0251,-0.0253,-0.0254,-0.0262,-0.0271,-0.0266,-0.0278,-0.0285,-0.0296,-0.0297,-0.0299,-0.0284,-0.0308,-0.0307,-0.0307,-0.0265,-0.0261,-0.0257,0,0,0,0,0,0,-0.0208,-0.0228,-0.0238,-0.0236,-0.0243,-0.0255,-0.0249,-0.026,-0.0265,-0.0266,-0.0282,-0.0284,-0.0282,-0.0293,-0.0294,-0.0287,-0.0303,-0.0303,-0.0271,-0.0267,-0.0264,-0.0236,-0.0304,0,0,0,0,0,-0.0203,-0.0205,-0.0223,-0.0219,-0.0223,-0.0237,-0.0238,-0.0246,-0.0255,-0.0257,-0.0267,-0.0278,-0.0281,-0.0282,-0.0289,-0.0283,-0.0283,-0.0277,-0.0273,-0.0271,-0.025,-0.0241,-0.0234,-0.0306,-0.0306,-0.0306,0,0,-0.0191,-0.0202,-0.0203,-0.0214,-0.022,-0.0215,-0.0238,-0.0237,-0.023,-0.0258,-0.0251,-0.0266,-0.0279,-0.0273,-0.0273,-0.0279,-0.0253,-0.027,-0.0267,-0.0248,-0.024,-0.0232,-0.0226,-0.0306,-0.0306,-0.0306,0,0,-0.0164,-0.0179,-0.0171,-0.0177,-0.0186,-0.0195,-0.0195,-0.0209,-0.0211,-0.0212,-0.0229,-0.023,-0.0245,-0.0241,-0.0244,-0.0226,-0.0238,-0.0239,-0.0195,-0.0187,-0.0181,-0.0175,-0.0174,-0.0169,-0.0236,-0.0235,-0.0235,0,-0.0147,-0.0143,-0.0166,-0.0159,-0.0156,-0.0184,-0.017,-0.0175,-0.0188,-0.0181,-0.0203,-0.0208,-0.0222,-0.0201,-0.0198,-0.0215,-0.022,-0.0208,-0.0181,-0.0175,-0.017,-0.0171,-0.0165,-0.0233,-0.0233,-0.0234,-0.0234,0,-0.0115,-0.0112,-0.0106,-0.0108,-0.0108,-0.01,-0.0115,-0.0113,-0.0127,-0.0131,-0.0122,-0.0143,-0.0144,-0.0153,-0.017,-0.014,-0.0159,-0.0179,-0.0185,-0.0159,-0.0163,-0.0158,-0.023,-0.0231,-0.0231,-0.0232,0,0,-0.0071,-0.0081,-0.0077,-0.0073,-0.0081,-0.0077,-0.0064,-0.0054,-0.0043,-0.0055,-0.0038,-0.0042,-0.0059,-0.0062,-0.0086,-0.0077,-0.0054,-0.011,-0.011,-0.0099,-0.0041,-0.0034,-0.0028,-0.0073,-0.0071,-0.007,-0.0062,0,-0.0035,-0.0015,-0.0026,-0.0001,0.0008,-0.0009,0.0005,0.0009,0.0,0.0005,-0.0002,-0.0004,-0.0024,-0.0036,-0.0023,-0.0057,-0.0037,-0.0054,-0.0076,-0.0076,-0.0064,-0.002,0.007,0.0088,-0.0057,-0.0056,-0.0055,0,0.0006,0.0012,0.004,0.0046,0.005,0.0062,0.0077,0.0083,0.0087,0.0077,0.0083,0.006,0.0069,0.0037,0.0038,0.0023,0.0009,-0.001,-0.0011,-0.0009,-0.0058,0.0039,0.0103,0.0135,-0.0048,-0.0048,-0.0049,0,0.0047,0.0062,0.0086,0.0087,0.009,0.0105,0.0108,0.0113,0.011,0.0117,0.0102,0.0119,0.0092,0.0099,0.0053,0.0046,0.0045,0.0024,0.003,0.0029,0.0103,0.0107,0.0209,0.0055,0.0055,0.0055,0.0055,0,0.0089,0.0108,0.0105,0.0116,0.0143,0.0136,0.0159,0.016,0.0151,0.0141,0.0136,0.0117,0.0103,0.0086,0.0075,0.0065,0.0064,0.0062,0.0045,0.0118,0.0123,0.0149,0.0144,0.0056,0.0055,0.0055,0.0055,0,0.0122,0.0124,0.0145,0.0155,0.0159,0.0175,0.0168,0.0172,0.0163,0.0142,0.0137,0.0108,0.0091,0.0082,0.007,0.0074,0.0108,0.0074,0.0156,0.0151,0.0199,0.0192,0.0248,0.0274,0.0103,0.0104,0.0104,0,0.0134,0.015,0.0166,0.0172,0.0175,0.0188,0.0188,0.018,0.0166,0.0127,0.0109,0.0088,0.0073,0.0071,0.0102,0.0123,0.012,0.0196,0.0215,0.0241,0.0221,0.0194,0.021,0.0323,0.0325,0.0327,0.0328,0,0.0152,0.0161,0.0173,0.0184,0.019,0.0187,0.018,0.0167,0.0139,0.0122,0.0085,0.0077,0.0093,0.0172,0.02,0.0206,0.0254,0.0231,0.0254,0.0413,0.0399,0.0402,0.0258,0.0344,0.0342,0.0341,0.034,0.034,0.0159,0.0169,0.0181,0.0192,0.019,0.017,0.0159,0.0144,0.0122,0.0102,0.0092,0.0142,0.0269,0.0338,0.0308,0.0401,0.0347,0.0452,0.0443,0.0412,0.0452,0.0334,0.0397,0.0396,0.0395,0.0394,0.0393,0,0.016,0.0173,0.0181,0.0182,0.0166,0.0165,0.0138,0.0128,0.0101,0.0152,0.0159,0.0372,0.0487,0.0556,0.0688,0.0665,0.0622,0.0638,0.0654,0.0659,0.0573,0.06,0.0716,0.0716,0.0716,0.0716,0.0716,0.0716,0.0159,0.0177,0.018,0.0155,0.0143,0.011,0.0089,0.0092,0.0138,0.0257,0.0411,0.0513,0.0714,0.0847,0.0902,0.0861,0.083,0.0801,0.0749,0.0726,0.0709,0.0692,0.0718,0.0858,0.0858,0.0881,0.0882,0.0882]}],[{"header":{"parameterUnit":"m.s-1","parameterCategory":2,"la1":30.2991,"la2":30.254,"lo1":-89.0895,"lo2":-89.0444,"dy":0.0017,"dx":0.0017,"nx":28,"ny":28,"refTime":"2024-03-01T03:00:00:Z","depth":"2","parameterNumber":2,"parameterNumberName":"U-component_of_CURRENTS"},"data":[0,0,0,0,0,0,0,0,0,0,0,0,0,0,0,0,0,0,0,0,0,0,0,0,0,0,0,0,0,0,0,0,0,0,0,0,0,0,0,0,0,0,0,0,0,0,0,0,0,0,0,0,0,0,0,0,0,0,0.0914,0.0914,0,0.0888,0.0887,0.0886,0.0874,0.0875,0.0875,0.0875,0.0859,0.0858,0.0857,0,0,0,0,0,0,0,0,0,0,0,0,0,0.0939,0.0939,0.0914,0.0914,0.0914,0.0888,0.0887,0.0886,0.0874,0.0875,0.0875,0.0876,0.0859,0.0858,0.0857,0,0,0,0,0,0,0,0,0,0,0,0,0,0.0918,0.0938,0.0914,0.0908,0.0907,0.0888,0.0887,0.0886,0.0874,0.0875,0.0875,0.0876,0.086,0.0858,0.0857,0.0838,0,0,0.0854,0.0853,0,0,0,0,0,0,0,0,0.092,0.0917,0.0909,0.0908,0.0908,0.0888,0.089,0.0872,0.0874,0.0882,0.0875,0.0876,0.0872,0.087,0.0858,0.0837,0.0837,0.0854,0.0853,0.0852,0.0852,0,0,0,0,0,0,0,0.0921,0.0918,0.0899,0.0909,0.0908,0.0902,0.0899,0.0886,0.0871,0.0882,0.0882,0.0885,0.0871,0.0859,0.0857,0.0836,0.0854,0.0852,0.0852,0.0851,0.0885,0.0886,0,0,0,0,0,0,0.0932,0.0919,0.09,0.0899,0.092,0.0901,0.0898,0.0891,0.0871,0.087,0.0885,0.0885,0.0861,0.0859,0.0857,0.0884,0.0852,0.0851,0.085,0.0883,0.0885,0.0887,0,0,0,0,0,0,0.0933,0.093,0.0901,0.0913,0.0909,0.0901,0.0892,0.089,0.089,0.0874,0.0872,0.0889,0.0861,0.0858,0.0868,0.0881,0.0851,0.085,0.0881,0.0884,0.0886,0.0905,0,0,0,0,0,0,0.0933,0.093,0.0933,0.0913,0.0909,0.0907,0.0892,0.0889,0.0892,0.0892,0.0877,0.0875,0.0861,0.087,0.0866,0.0879,0.0849,0.0879,0.0882,0.0885,0.0902,0.0908,0.0912,0,0,0,0,0,0.0934,0.0935,0.0933,0.0932,0.0911,0.0908,0.0906,0.0899,0.0892,0.0899,0.0893,0.0876,0.0887,0.0869,0.0865,0.0878,0.0878,0.0882,0.0885,0.09,0.0907,0.0912,0,0,0,0,0,0,0.0943,0.0934,0.0931,0.0928,0.0928,0.0908,0.091,0.0906,0.0902,0.0905,0.0886,0.0884,0.09,0.0893,0.0874,0.0902,0.0884,0.0887,0.0897,0.0903,0.0908,0.0918,0.0848,0,0,0,0,0,0.0948,0.0948,0.094,0.094,0.0939,0.0926,0.0925,0.0924,0.0917,0.0916,0.0906,0.0906,0.0908,0.0909,0.091,0.0915,0.0913,0.0928,0.0933,0.0937,0.0946,0.0961,0.0967,0.0899,0.0899,0.0899,0,0,0.0953,0.0947,0.0948,0.0943,0.0936,0.0937,0.0925,0.093,0.0934,0.0915,0.0918,0.0919,0.0916,0.0928,0.0935,0.0924,0.0955,0.0942,0.0945,0.0952,0.0965,0.0971,0.0977,0.0901,0.0901,0.09,0,0,0.0958,0.0954,0.0957,0.0957,0.096,0.0955,0.0961,0.0952,0.0952,0.0959,0.0952,0.097,0.0961,0.0968,0.0968,0.1005,0.0982,0.1006,0.1032,0.1046,0.1051,0.1056,0.1054,0.1058,0.1007,0.1007,0.1007,0,0.0969,0.0961,0.0959,0.096,0.0962,0.0965,0.0968,0.0968,0.0968,0.0974,0.097,0.0979,0.0983,0.0997,0.1019,0.1014,0.1012,0.1001,0.105,0.1055,0.1059,0.1056,0.1061,0.1008,0.1008,0.1008,0.1008,0,0.0968,0.0969,0.0969,0.0971,0.0978,0.0982,0.0986,0.0998,0.1,0.1003,0.1022,0.1024,0.1034,0.1041,0.1041,0.1075,0.106,0.1052,0.1028,0.1067,0.1062,0.1066,0.101,0.1009,0.1009,0.1009,0,0,0.0973,0.097,0.0972,0.097,0.0983,0.0983,0.1003,0.1018,0.1022,0.1039,0.1045,0.1074,0.1082,0.1086,0.1085,0.1103,0.1137,0.1096,0.1097,0.1082,0.1155,0.1125,0.1126,0.1131,0.1133,0.1133,0.1135,0,0.0973,0.0972,0.0977,0.0982,0.0979,0.0994,0.1005,0.1026,0.1037,0.1046,0.1069,0.1076,0.1093,0.1094,0.1123,0.1132,0.1151,0.1136,0.1131,0.1131,0.1089,0.1131,0.0993,0.0982,0.1139,0.114,0.1141,0,0.0963,0.0967,0.0967,0.0973,0.0973,0.0982,0.0998,0.1015,0.1044,0.1051,0.1079,0.1084,0.1127,0.1125,0.1171,0.1158,0.1171,0.1174,0.1174,0.1143,0.1109,0.0972,0.0983,0.1147,0.1147,0.1146,0.1146,0,0.0945,0.0956,0.0953,0.0954,0.0967,0.0975,0.0995,0.1022,0.104,0.1061,0.1073,0.1103,0.1125,0.1149,0.1185,0.1175,0.1221,0.1201,0.1181,0.1178,0.106,0.1045,0.1236,0.1236,0.1236,0.1236,0.1236,0,0.0928,0.0925,0.0942,0.0937,0.0943,0.0964,0.0977,0.0996,0.1033,0.1055,0.1082,0.1098,0.1137,0.1168,0.1186,0.1205,0.1227,0.1197,0.1185,0.1063,0.1049,0.1194,0.119,0.1236,0.1236,0.1236,0.1236,0,0.0894,0.0904,0.0901,0.092,0.0928,0.0937,0.098,0.0993,0.1029,0.1058,0.107,0.1118,0.1157,0.1185,0.1219,0.1207,0.1218,0.1218,0.1069,0.104,0.1158,0.1155,0.1181,0.118,0.1179,0.1179,0.1178,0,0.0871,0.0866,0.0886,0.0893,0.0901,0.0924,0.0942,0.0988,0.1006,0.1066,0.1077,0.1131,0.1142,0.1181,0.1167,0.1167,0.1227,0.1041,0.1008,0.1172,0.1157,0.1154,0.1152,0.085,0.0847,0.0844,0.0842,0,0.0836,0.0844,0.0845,0.0863,0.0878,0.0898,0.0929,0.0945,0.0996,0.1013,0.1044,0.1058,0.109,0.1021,0.1031,0.1023,0.1027,0.0989,0.1199,0.0895,0.0862,0.0847,0.0855,0.0819,0.0821,0.0823,0.0824,0.0825,0.0815,0.081,0.0818,0.083,0.0848,0.0864,0.0867,0.0894,0.0912,0.0922,0.0967,0.0908,0.0881,0.0808,0.081,0.0824,0.0916,0.0848,0.0854,0.0864,0.0835,0.0804,0.0743,0.0745,0.0746,0.0748,0.0749,0,0.0796,0.0794,0.0794,0.0803,0.0801,0.0836,0.0848,0.0818,0.081,0.0806,0.0803,0.0604,0.0557,0.0576,0.0544,0.0563,0.0549,0.0552,0.0506,0.0529,0.0549,0.0503,0.0324,0.0323,0.0322,0.0321,0,0,0.0787,0.0774,0.0768,0.075,0.0766,0.0743,0.0744,0.0697,0.0647,0.0561,0.0485,0.0483,0.0469,0.0323,0.0354,0.0337,0.043,0.0323,0.0658,0.0621,0.064,0.071,0.0665,0,0,0,0,0]},{"header":{"parameterUnit":"m.s-1","parameterCategory":2,"la1":30.2991,"la2":30.254,"lo1":-89.0895,"lo2":-89.0444,"dy":0.0017,"dx":0.0017,"nx":28,"ny":28,"refTime":"2024-03-01T03:00:00:Z","depth":"2","parameterNumber":3,"parameterNumberName":"V-component_of_CURRENTS"},"data":[0,0,0,0,0,0,0,0,0,0,0,0,0,0,0,0,0,0,0,0,0,0,0,0,0,0,0,0,0,0,0,0,0,0,0,0,0,0,0,0,0,0,0,0,0,0,0,0,0,0,0,0,0,0,0,0,0,0,0.0077,0.0077,0,0.0091,0.0092,0.0092,0.0095,0.0095,0.0094,0.0094,0.0106,0.0106,0.0107,0,0,0,0,0,0,0,0,0,0,0,0,0,0.0069,0.0069,0.0077,0.0077,0.0077,0.0091,0.0092,0.0092,0.0095,0.0095,0.0094,0.0094,0.0105,0.0106,0.0107,0,0,0,0,0,0,0,0,0,0,0,0,0,0.008,0.0069,0.0077,0.0078,0.0078,0.0091,0.0092,0.0092,0.0095,0.0095,0.0094,0.0094,0.0105,0.0106,0.0107,0.0125,0,0,0.011,0.0111,0,0,0,0,0,0,0,0,0.0079,0.008,0.0078,0.0078,0.0078,0.0088,0.0093,0.0102,0.0095,0.0092,0.0094,0.0093,0.0098,0.01,0.0108,0.0126,0.0126,0.011,0.0111,0.0111,0.0112,0,0,0,0,0,0,0,0.0078,0.008,0.0086,0.0078,0.0078,0.0083,0.0084,0.0095,0.01,0.0092,0.0092,0.0088,0.0098,0.0107,0.0108,0.0126,0.011,0.0111,0.0112,0.0112,0.0121,0.0121,0,0,0,0,0,0,0.007,0.0079,0.0085,0.0086,0.0074,0.0083,0.0084,0.0088,0.01,0.0101,0.0089,0.0088,0.0106,0.0107,0.0109,0.0117,0.0111,0.0112,0.0113,0.0122,0.0121,0.0121,0,0,0,0,0,0,0.007,0.0071,0.0085,0.008,0.0082,0.0083,0.0088,0.0088,0.009,0.0097,0.0098,0.0088,0.0105,0.0107,0.0111,0.0118,0.0113,0.0114,0.0122,0.0122,0.0121,0.0142,0,0,0,0,0,0,0.007,0.0071,0.007,0.008,0.0081,0.0086,0.0088,0.0089,0.0088,0.0088,0.0097,0.0098,0.0105,0.0109,0.0112,0.0119,0.0114,0.0123,0.0122,0.0121,0.0142,0.0142,0.0142,0,0,0,0,0,0.007,0.0072,0.0071,0.0071,0.0081,0.0086,0.0087,0.0089,0.0088,0.0089,0.0094,0.0098,0.0106,0.011,0.0113,0.0121,0.0123,0.0122,0.0121,0.0141,0.0142,0.0142,0,0,0,0,0,0,0.0072,0.0073,0.0071,0.0074,0.0075,0.0085,0.0086,0.0087,0.0093,0.0091,0.0099,0.0101,0.0106,0.0105,0.0109,0.0118,0.0113,0.0113,0.0127,0.0128,0.0128,0.0134,0.0115,0,0,0,0,0,0.007,0.0071,0.0072,0.0074,0.0075,0.008,0.0082,0.0081,0.0087,0.0089,0.0095,0.0099,0.0108,0.011,0.0116,0.0124,0.0125,0.0127,0.0127,0.0128,0.0132,0.013,0.0132,0.0118,0.0118,0.0118,0,0,0.0071,0.0071,0.0071,0.0074,0.0078,0.0085,0.0081,0.0081,0.009,0.0089,0.0103,0.0104,0.0109,0.0119,0.012,0.0118,0.0133,0.0127,0.0128,0.0132,0.013,0.0131,0.0133,0.0118,0.0118,0.0118,0,0,0.0076,0.0074,0.0077,0.0079,0.0078,0.0083,0.0081,0.0086,0.0091,0.0098,0.0102,0.0104,0.0114,0.0123,0.0129,0.0133,0.0135,0.0129,0.014,0.0137,0.0139,0.014,0.015,0.0152,0.0128,0.0128,0.0129,0,0.0075,0.0083,0.0078,0.0085,0.0089,0.0082,0.0091,0.0098,0.0103,0.011,0.01,0.0118,0.012,0.0141,0.0139,0.0137,0.0136,0.0142,0.014,0.0141,0.0142,0.0152,0.0154,0.0129,0.0129,0.0129,0.0129,0,0.0086,0.009,0.0094,0.0101,0.0105,0.0109,0.0114,0.0119,0.0119,0.0124,0.0136,0.0138,0.0147,0.0146,0.0146,0.0156,0.0154,0.0143,0.0143,0.0145,0.0155,0.0157,0.0131,0.013,0.013,0.013,0,0,0.0094,0.01,0.0102,0.0108,0.0113,0.0119,0.0133,0.0146,0.0158,0.0156,0.0173,0.018,0.0174,0.0179,0.0178,0.0174,0.0182,0.016,0.016,0.0179,0.0185,0.0215,0.022,0.0168,0.0168,0.0168,0.0192,0,0.0106,0.0119,0.0121,0.0137,0.0145,0.0147,0.0164,0.0172,0.0177,0.019,0.019,0.0202,0.019,0.0193,0.0189,0.0183,0.0186,0.0177,0.0173,0.0173,0.0207,0.0223,0.0242,0.0268,0.0194,0.0194,0.0195,0,0.0122,0.0128,0.0143,0.0157,0.0162,0.0173,0.0195,0.0205,0.022,0.0224,0.023,0.0229,0.0236,0.0216,0.0216,0.0209,0.02,0.0192,0.0193,0.0216,0.0207,0.0251,0.0274,0.0198,0.0197,0.0197,0.0197,0,0.0134,0.0147,0.0159,0.0163,0.0177,0.019,0.0199,0.0215,0.0228,0.0243,0.0252,0.0257,0.0262,0.0247,0.0239,0.0222,0.0238,0.0211,0.0236,0.0238,0.0252,0.0256,0.0212,0.0212,0.0212,0.0212,0.0212,0,0.0149,0.0161,0.0165,0.0173,0.0192,0.0198,0.0223,0.0233,0.0247,0.0271,0.0267,0.0297,0.0267,0.0275,0.0254,0.0264,0.0252,0.0249,0.0249,0.026,0.0264,0.0196,0.0194,0.0213,0.0212,0.0212,0.0212,0,0.0163,0.0165,0.0179,0.0192,0.0198,0.0211,0.0232,0.0253,0.0262,0.0292,0.0298,0.0322,0.0351,0.0333,0.0323,0.0296,0.0292,0.0298,0.0323,0.0326,0.0287,0.0285,0.032,0.0321,0.0322,0.0323,0.0324,0,0.0172,0.0178,0.0189,0.0198,0.0206,0.0224,0.0244,0.0259,0.0285,0.0324,0.0349,0.0383,0.0459,0.0463,0.042,0.0407,0.0361,0.0381,0.0351,0.0303,0.0299,0.0296,0.0293,0.0377,0.0378,0.0379,0.038,0,0.0187,0.0187,0.0195,0.021,0.0231,0.0259,0.0289,0.0321,0.0351,0.0403,0.0492,0.0558,0.0572,0.059,0.0546,0.0518,0.0382,0.04,0.0348,0.0349,0.036,0.0355,0.035,0.0389,0.0388,0.0387,0.0387,0.0386,0.0196,0.02,0.0206,0.0222,0.0249,0.0305,0.0368,0.042,0.0502,0.0605,0.063,0.0724,0.068,0.0671,0.0597,0.0478,0.0495,0.0432,0.0428,0.0423,0.0427,0.044,0.0485,0.0484,0.0484,0.0484,0.0484,0,0.0198,0.0201,0.0217,0.025,0.0296,0.0307,0.0408,0.0512,0.0658,0.0706,0.082,0.0784,0.0804,0.0703,0.0564,0.05,0.0462,0.0441,0.0407,0.0403,0.0398,0.0398,0.0449,0.0448,0.0447,0.0446,0,0,0.02,0.0205,0.0209,0.0281,0.032,0.0446,0.0531,0.0697,0.0787,0.0877,0.0884,0.0962,0.0849,0.0722,0.0635,0.0536,0.0473,0.0507,0.0555,0.0527,0.0522,0.0428,0.0429,0,0,0,0,0]}],[{"header":{"parameterUnit":"m.s-1","parameterCategory":2,"la1":30.2991,"la2":30.254,"lo1":-89.0895,"lo2":-89.0444,"dy":0.0017,"dx":0.0017,"nx":28,"ny":28,"refTime":"2024-03-01T03:00:00:Z","depth":"4","parameterNumber":2,"parameterNumberName":"U-component_of_CURRENTS"},"data":[0,0,0,0,0,0,0,0,0,0,0,0,0,0,0,0,0,0,0,0,0,0,0,0,0,0,0,0,0,0,0,0,0,0,0,0,0,0,0,0,0,0,0,0,0,0,0,0,0,0,0,0,0,0,0,0,0,0,0.0381,0.0381,0,0.0373,0.0372,0.0372,0.0375,0.0375,0.0375,0.0375,0.0361,0.036,0.036,0,0,0,0,0,0,0,0,0,0,0,0,0,0.0398,0.0398,0.0381,0.0381,0.0381,0.0373,0.0372,0.0372,0.0374,0.0375,0.0375,0.0375,0.0361,0.036,0.036,0,0,0,0,0,0,0,0,0,0,0,0,0,0.039,0.0397,0.0381,0.0382,0.0382,0.0373,0.0372,0.0372,0.0374,0.0375,0.0375,0.0375,0.0361,0.036,0.0359,0.0347,0,0,0.0357,0.0356,0,0,0,0,0,0,0,0,0.039,0.0389,0.0382,0.0382,0.0382,0.0376,0.0373,0.0364,0.0374,0.0376,0.0375,0.0376,0.0365,0.0364,0.0361,0.0346,0.0346,0.0357,0.0356,0.0356,0.0355,0,0,0,0,0,0,0,0.0391,0.0389,0.0377,0.0381,0.0381,0.0382,0.0381,0.0371,0.0368,0.0376,0.0377,0.0377,0.0365,0.0362,0.0361,0.0345,0.0357,0.0356,0.0355,0.0355,0.0383,0.0384,0,0,0,0,0,0,0.0393,0.039,0.0377,0.0377,0.0388,0.0381,0.038,0.0377,0.0369,0.0368,0.0376,0.0377,0.0363,0.0362,0.036,0.0386,0.0356,0.0355,0.0354,0.0381,0.0383,0.0384,0,0,0,0,0,0,0.0393,0.0391,0.0378,0.0384,0.0382,0.0381,0.0376,0.0376,0.0386,0.0369,0.0368,0.0388,0.0363,0.0361,0.0367,0.0384,0.0354,0.0354,0.038,0.0382,0.0384,0.0412,0,0,0,0,0,0,0.0393,0.0391,0.0396,0.0384,0.0382,0.0378,0.0376,0.0376,0.0385,0.0386,0.0378,0.0377,0.0363,0.0368,0.0366,0.0382,0.0353,0.0378,0.0381,0.0383,0.0409,0.0415,0.0419,0,0,0,0,0,0.0394,0.0396,0.0396,0.0395,0.0385,0.0379,0.0378,0.0377,0.0385,0.0388,0.039,0.0378,0.0382,0.0368,0.0365,0.0382,0.0377,0.038,0.0383,0.0407,0.0414,0.0419,0,0,0,0,0,0,0.0406,0.0396,0.0396,0.0395,0.0391,0.038,0.0385,0.0386,0.039,0.0399,0.0384,0.0382,0.0394,0.0388,0.0373,0.04,0.0381,0.0384,0.0401,0.0407,0.0412,0.0411,0.0352,0,0,0,0,0,0.041,0.041,0.04,0.0401,0.0401,0.0397,0.0398,0.0399,0.0398,0.0401,0.0398,0.0401,0.0401,0.0405,0.0401,0.0411,0.0404,0.0425,0.043,0.0434,0.0433,0.0438,0.0442,0.0394,0.0394,0.0394,0,0,0.0416,0.041,0.0411,0.0404,0.0403,0.0403,0.0399,0.0406,0.0412,0.0398,0.0413,0.0413,0.0407,0.0419,0.0425,0.0418,0.0447,0.0437,0.044,0.0438,0.0441,0.0446,0.045,0.0396,0.0395,0.0395,0,0,0.0424,0.0423,0.0426,0.0423,0.0424,0.042,0.0426,0.0425,0.0433,0.0443,0.044,0.0454,0.0452,0.0455,0.0454,0.0486,0.0469,0.0491,0.0515,0.052,0.0524,0.0527,0.0532,0.0535,0.0498,0.0498,0.0498,0,0.0434,0.043,0.0426,0.0427,0.0427,0.043,0.0433,0.0439,0.0443,0.045,0.0455,0.0467,0.047,0.0479,0.0498,0.0496,0.0494,0.049,0.0525,0.0527,0.053,0.0535,0.0538,0.0499,0.0499,0.0499,0.0499,0,0.0438,0.044,0.0442,0.0442,0.0443,0.0448,0.0451,0.0464,0.0478,0.0481,0.0499,0.0504,0.0511,0.0522,0.0521,0.0544,0.0535,0.0524,0.0505,0.0536,0.054,0.0543,0.0502,0.0501,0.0501,0.05,0,0,0.0447,0.0445,0.0447,0.0444,0.0452,0.0448,0.0469,0.0477,0.0484,0.0507,0.0515,0.0541,0.0547,0.0549,0.0552,0.0566,0.0595,0.056,0.056,0.0557,0.0605,0.0553,0.0551,0.0586,0.0586,0.0587,0.0603,0,0.0452,0.045,0.0452,0.0454,0.0451,0.0462,0.047,0.0484,0.0497,0.0507,0.0529,0.0535,0.0555,0.0559,0.0581,0.0585,0.0602,0.0591,0.0583,0.0583,0.0525,0.0553,0.0588,0.0605,0.0605,0.0606,0.0606,0,0.0453,0.0449,0.0452,0.0446,0.0447,0.0453,0.0463,0.0473,0.0493,0.0505,0.0528,0.0533,0.0567,0.0571,0.0608,0.0598,0.0611,0.0616,0.0616,0.0556,0.0535,0.0566,0.0611,0.061,0.061,0.0609,0.0609,0,0.0446,0.0447,0.0447,0.0446,0.0445,0.0455,0.0461,0.0477,0.0475,0.0504,0.0505,0.0539,0.055,0.0578,0.0607,0.0608,0.0632,0.063,0.0594,0.059,0.0618,0.0615,0.0651,0.0651,0.0651,0.0651,0.0651,0,0.044,0.0441,0.0444,0.0439,0.0434,0.0446,0.0443,0.0459,0.0466,0.0452,0.0503,0.049,0.0551,0.0569,0.0601,0.0606,0.0632,0.06,0.059,0.0632,0.063,0.062,0.0617,0.0652,0.0651,0.0651,0.0651,0,0.0438,0.0438,0.0432,0.0432,0.0429,0.043,0.0421,0.0408,0.0436,0.042,0.0427,0.0458,0.0484,0.0535,0.0573,0.0583,0.06,0.0592,0.0636,0.0628,0.0559,0.0557,0.0558,0.0556,0.0555,0.0553,0.0552,0,0.0438,0.0437,0.0425,0.0408,0.041,0.0405,0.0384,0.0394,0.0377,0.0384,0.0366,0.0393,0.0415,0.0436,0.0499,0.0555,0.0554,0.0566,0.0568,0.0559,0.0549,0.055,0.0549,0.055,0.055,0.0549,0.0549,0,0.0444,0.0445,0.0436,0.039,0.0366,0.0324,0.0306,0.0286,0.0285,0.0317,0.0291,0.0311,0.0335,0.0388,0.0435,0.0473,0.0564,0.0551,0.0555,0.0557,0.0549,0.0542,0.0543,0.0544,0.0545,0.0545,0.0545,0,0.0456,0.0447,0.042,0.037,0.0321,0.0242,0.024,0.0207,0.0189,0.0213,0.0197,0.0248,0.0293,0.0342,0.0381,0.0422,0.0429,0.0433,0.0443,0.045,0.0413,0.0388,0.0325,0,0,0,0,0,0.0468,0.0439,0.0392,0.031,0.0245,0.0207,0.0174,0.0174,0.0183,0.0148,0.0172,0.0192,0.0241,0.0276,0.0303,0.0356,0.0441,0.0387,0.0452,0.0516,0.0522,0.0492,0,0,0,0,0,0,0.047,0.0449,0.039,0.025,0.0181,0.0093,0.0068,0.0073,0.0065,0.0101,0.0133,0.0178,0.024,0.0222,0.0296,0.0312,0.0349,0.0433,0.0433,0.0513,0.0518,0.0523,0.0494,0,0,0,0,0]},{"header":{"parameterUnit":"m.s-1","parameterCategory":2,"la1":30.2991,"la2":30.254,"lo1":-89.0895,"lo2":-89.0444,"dy":0.0017,"dx":0.0017,"nx":28,"ny":28,"refTime":"2024-03-01T03:00:00:Z","depth":"4","parameterNumber":3,"parameterNumberName":"V-component_of_CURRENTS"},"data":[0,0,0,0,0,0,0,0,0,0,0,0,0,0,0,0,0,0,0,0,0,0,0,0,0,0,0,0,0,0,0,0,0,0,0,0,0,0,0,0,0,0,0,0,0,0,0,0,0,0,0,0,0,0,0,0,0,0,0.0218,0.0218,0,0.0247,0.0248,0.0248,0.0271,0.0271,0.0271,0.0271,0.0304,0.0305,0.0305,0,0,0,0,0,0,0,0,0,0,0,0,0,0.019,0.019,0.0218,0.0218,0.0218,0.0247,0.0248,0.0248,0.0271,0.0271,0.0271,0.0271,0.0304,0.0304,0.0305,0,0,0,0,0,0,0,0,0,0,0,0,0,0.021,0.019,0.0218,0.0232,0.0233,0.0247,0.0248,0.0248,0.0271,0.0271,0.0271,0.0271,0.0303,0.0304,0.0306,0.031,0,0,0.0309,0.031,0,0,0,0,0,0,0,0,0.0209,0.0211,0.0229,0.0231,0.0232,0.0254,0.025,0.0269,0.0271,0.0258,0.0271,0.0271,0.0287,0.0289,0.0296,0.0312,0.0313,0.0309,0.031,0.0311,0.0311,0,0,0,0,0,0,0,0.0207,0.021,0.0231,0.023,0.0232,0.024,0.0243,0.0254,0.0272,0.0259,0.026,0.0261,0.0288,0.0295,0.0297,0.0314,0.0309,0.031,0.0311,0.0312,0.034,0.034,0,0,0,0,0,0,0.02,0.0209,0.023,0.0231,0.0219,0.024,0.0244,0.0248,0.0272,0.0275,0.0261,0.0262,0.0293,0.0296,0.0298,0.031,0.0311,0.0312,0.0312,0.034,0.034,0.034,0,0,0,0,0,0,0.02,0.0202,0.0229,0.0219,0.0223,0.024,0.0245,0.0249,0.0258,0.0274,0.0277,0.0267,0.0293,0.0297,0.0314,0.0312,0.0312,0.0313,0.034,0.034,0.034,0.0331,0,0,0,0,0,0,0.0199,0.0202,0.0205,0.0219,0.0223,0.0238,0.0245,0.0249,0.0258,0.0259,0.028,0.0283,0.0294,0.0312,0.0315,0.0313,0.0314,0.034,0.034,0.034,0.0332,0.0331,0.0331,0,0,0,0,0,0.0198,0.02,0.0205,0.0207,0.0226,0.0238,0.0241,0.0254,0.0258,0.0263,0.0279,0.0282,0.0314,0.0313,0.0317,0.0315,0.034,0.034,0.034,0.0332,0.0331,0.0331,0,0,0,0,0,0,0.019,0.0203,0.0208,0.0215,0.0225,0.0241,0.0246,0.0253,0.027,0.0272,0.0287,0.0292,0.0306,0.0312,0.031,0.0323,0.0326,0.0327,0.0318,0.0318,0.0317,0.0315,0.0315,0,0,0,0,0,0.0189,0.0195,0.0207,0.0213,0.0217,0.0231,0.0237,0.0246,0.026,0.0268,0.0281,0.0295,0.0308,0.0314,0.0328,0.0336,0.0339,0.0336,0.0335,0.0335,0.0335,0.0337,0.0336,0.0341,0.0341,0.0341,0,0,0.0186,0.0195,0.0198,0.0212,0.0221,0.0229,0.0236,0.0245,0.0253,0.0268,0.0284,0.0296,0.0311,0.0323,0.0328,0.0328,0.0336,0.0335,0.0334,0.0335,0.0337,0.0336,0.0336,0.0341,0.0341,0.0341,0,0,0.0184,0.0193,0.0196,0.0205,0.0217,0.0227,0.0228,0.0243,0.0252,0.0268,0.028,0.029,0.0311,0.032,0.0327,0.0331,0.0335,0.0333,0.0328,0.0329,0.0328,0.0328,0.0333,0.0333,0.033,0.033,0.033,0,0.0181,0.019,0.0199,0.0205,0.0213,0.0225,0.0231,0.0241,0.0261,0.0269,0.0272,0.03,0.0309,0.0323,0.0324,0.0329,0.0333,0.0328,0.0328,0.0328,0.0327,0.0333,0.0333,0.033,0.033,0.033,0.033,0,0.0181,0.019,0.0192,0.0206,0.0215,0.0223,0.0236,0.0246,0.0256,0.0267,0.0283,0.0295,0.0313,0.0312,0.0321,0.0324,0.0328,0.0329,0.0328,0.0326,0.0332,0.0333,0.0329,0.033,0.033,0.033,0,0,0.0176,0.0189,0.0192,0.0201,0.0217,0.0226,0.0238,0.0255,0.0268,0.0276,0.0293,0.0302,0.0308,0.0316,0.0322,0.0318,0.0319,0.0322,0.0322,0.0325,0.0326,0.0323,0.0323,0.0319,0.0319,0.0319,0.0331,0,0.0176,0.0185,0.0194,0.0209,0.0217,0.0233,0.0246,0.0262,0.0277,0.0295,0.0299,0.0319,0.031,0.0322,0.0314,0.0327,0.0319,0.0316,0.0329,0.0329,0.0325,0.0323,0.0319,0.0331,0.0331,0.0331,0.0331,0,0.0177,0.0184,0.0195,0.0218,0.0224,0.0235,0.0264,0.0278,0.03,0.0313,0.0323,0.0333,0.0339,0.0329,0.0331,0.0331,0.0325,0.0323,0.0324,0.0325,0.0327,0.0333,0.0332,0.0332,0.0332,0.0332,0.0332,0,0.0173,0.019,0.0199,0.0206,0.023,0.0242,0.0259,0.0283,0.031,0.0329,0.0354,0.0351,0.0372,0.0354,0.0355,0.0345,0.0356,0.0343,0.0331,0.0331,0.0334,0.0334,0.0332,0.0332,0.0332,0.0332,0.0332,0,0.0175,0.0187,0.02,0.0207,0.023,0.0245,0.028,0.0293,0.033,0.037,0.0367,0.0401,0.038,0.0389,0.0366,0.0359,0.0366,0.0331,0.0333,0.033,0.033,0.0334,0.0334,0.0333,0.0332,0.0332,0.0332,0,0.0176,0.0181,0.0197,0.0218,0.023,0.0248,0.0303,0.0336,0.0361,0.0415,0.0427,0.0452,0.0465,0.0442,0.0427,0.0389,0.0371,0.0363,0.0373,0.0375,0.0338,0.0338,0.0342,0.0342,0.0342,0.0342,0.0342,0,0.018,0.0184,0.0206,0.0223,0.0236,0.0272,0.031,0.0348,0.0392,0.0453,0.0486,0.0512,0.0522,0.0501,0.0465,0.0415,0.04,0.0375,0.0337,0.0337,0.0339,0.0338,0.0338,0.0342,0.0342,0.0342,0.0342,0,0.0188,0.0191,0.0201,0.0233,0.027,0.0325,0.038,0.0414,0.047,0.049,0.0541,0.0531,0.0549,0.0514,0.0481,0.0441,0.0379,0.0375,0.0373,0.0337,0.0337,0.0338,0.0338,0.0342,0.0342,0.0342,0.0342,0,0.0196,0.0199,0.0212,0.0244,0.0299,0.0373,0.0399,0.0461,0.0505,0.0557,0.0574,0.0582,0.0582,0.053,0.0503,0.0462,0.0434,0.0387,0.0384,0.0384,0.0384,0.0389,0.0413,0,0,0,0,0,0.0198,0.0201,0.023,0.0275,0.0338,0.0378,0.045,0.0479,0.0525,0.056,0.0566,0.0578,0.0542,0.0535,0.0494,0.0494,0.0425,0.044,0.0369,0.0342,0.0342,0.0333,0,0,0,0,0,0,0.0199,0.0211,0.0223,0.0307,0.0352,0.0438,0.0489,0.0521,0.0541,0.0565,0.0555,0.054,0.0515,0.0567,0.0486,0.0476,0.0416,0.0427,0.0425,0.0342,0.0342,0.0342,0.0333,0,0,0,0,0]}]]